| time (UTC) | temp C | wind direction | speed KPH | gust KPH | rain 1hr cm | rain 24hr cm | rain mn cm | humidity % | barometer mb |
| 20260901031547 | 24 | 0 | 0.0 | 0.0 | 0.00 | 0.00 | 0.00 | 93 | 1019.0 |
| 20260901030054 | 25 | 0 | 0.0 | 1.6 | 0.00 | 0.00 | 0.00 | 93 | 1019.0 |
| 20260901024550 | 25 | 0 | 0.0 | 1.6 | 0.00 | 0.00 | 0.00 | 92 | 1018.9 |
| 20260901023047 | 25 | 0 | 0.0 | 1.6 | 0.00 | 0.00 | 0.00 | 92 | 1018.8 |
| 20260901021547 | 25 | 0 | 0.0 | 0.0 | 0.00 | 0.00 | 0.00 | 91 | 1018.6 |
| 20260901020047 | 25 | 0 | 0.0 | 0.0 | 0.00 | 0.00 | 0.00 | 91 | 1018.6 |
| 20260901014548 | 26 | 0 | 0.0 | 1.6 | 0.00 | 0.00 | 0.00 | 90 | 1018.5 |
| 20260901013107 | 26 | 0 | 0.0 | 1.6 | 0.00 | 0.00 | 0.00 | 89 | 1018.4 |
| 20260901011548 | 26 | 51 | 0.0 | 1.6 | 0.00 | 0.00 | 0.00 | 88 | 1018.3 |
| 20260901010046 | 26 | 0 | 0.0 | 0.0 | 0.00 | 0.00 | 0.00 | 86 | 1018.3 |
| 20260901004546 | 27 | 0 | 0.0 | 1.6 | 0.00 | 0.00 | 0.00 | 85 | 1018.2 |
| 20260901003051 | 28 | 0 | 0.0 | 1.6 | 0.00 | 0.00 | 0.00 | 84 | 1018.3 |
| 20260901001547 | 28 | 0 | 0.0 | 1.6 | 0.00 | 0.00 | 0.00 | 82 | 1018.2 |
| 20260901000056 | 30 | 0 | 0.0 | 1.6 | 0.00 | 0.00 | 0.00 | 79 | 1018.2 |
| 20260831234557 | 31 | 0 | 0.0 | 1.6 | 0.00 | 0.00 | 0.00 | 74 | 1018.3 |
| 20260831233050 | 31 | 51 | 0.0 | 1.6 | 0.00 | 0.00 | 0.00 | 69 | 1018.4 |
| 20260831231550 | 32 | 0 | 0.0 | 3.2 | 0.00 | 0.00 | 0.00 | 65 | 1018.4 |
| 20260831230054 | 33 | 37 | 1.6 | 4.8 | 0.00 | 0.00 | 0.00 | 62 | 1018.4 |
| 20260831224549 | 33 | 30 | 1.6 | 4.8 | 0.00 | 0.00 | 0.00 | 59 | 1018.5 |
| 20260831223049 | 33 | 20 | 3.2 | 8.0 | 0.00 | 0.00 | 0.00 | 59 | 1018.6 |
| 20260831221605 | 33 | 54 | 3.2 | 6.4 | 0.00 | 0.00 | 0.00 | 60 | 1018.6 |
| 20260831220048 | 33 | 75 | 3.2 | 8.0 | 0.00 | 0.00 | 0.00 | 59 | 1018.8 |
| 20260831214549 | 33 | 33 | 3.2 | 9.7 | 0.00 | 0.00 | 0.00 | 59 | 1018.7 |
| 20260831213049 | 33 | 29 | 4.8 | 8.0 | 0.00 | 0.00 | 0.00 | 57 | 1018.9 |
| 20260831211552 | 33 | 108 | 0.0 | 4.8 | 0.00 | 0.00 | 0.00 | 56 | 1019.1 |
| 20260831210050 | 33 | 46 | 3.2 | 11.3 | 0.00 | 0.00 | 0.00 | 56 | 1019.2 |
| 20260831204549 | 33 | 73 | 3.2 | 9.7 | 0.00 | 0.00 | 0.00 | 58 | 1019.2 |
| 20260831203126 | 33 | 77 | 1.6 | 9.7 | 0.00 | 0.00 | 0.00 | 58 | 1019.2 |
| 20260831201602 | 33 | 44 | 0.0 | 4.8 | 0.00 | 0.00 | 0.00 | 58 | 1019.3 |
| 20260831200134 | 33 | 98 | 3.2 | 8.0 | 0.00 | 0.00 | 0.00 | 58 | 1019.5 |
| 20260831194556 | 33 | 25 | 3.2 | 9.7 | 0.00 | 0.00 | 0.00 | 57 | 1019.5 |
| 20260831193049 | 33 | 0 | 0.0 | 11.3 | 0.00 | 0.00 | 0.00 | 60 | 1019.6 |
| 20260831191554 | 33 | 128 | 4.8 | 9.7 | 0.00 | 0.00 | 0.00 | 58 | 1019.8 |
| 20260831190049 | 33 | 0 | 1.6 | 9.7 | 0.00 | 0.00 | 0.00 | 60 | 1019.8 |
| 20260831184552 | 33 | 76 | 3.2 | 8.0 | 0.00 | 0.00 | 0.00 | 60 | 1020.2 |
| 20260831183047 | 33 | 37 | 3.2 | 9.7 | 0.00 | 0.00 | 0.00 | 60 | 1020.2 |
| 20260831181553 | 32 | 46 | 1.6 | 12.9 | 0.00 | 0.00 | 0.00 | 60 | 1020.4 |
| 20260831180108 | 32 | 27 | 3.2 | 14.5 | 0.00 | 0.00 | 0.00 | 62 | 1020.9 |
| 20260831174551 | 32 | 107 | 3.2 | 9.7 | 0.00 | 0.00 | 0.00 | 62 | 1021.0 |
| 20260831173051 | 32 | 77 | 4.8 | 14.5 | 0.00 | 0.00 | 0.00 | 64 | 1021.2 |
| 20260831171556 | 32 | 46 | 4.8 | 12.9 | 0.00 | 0.00 | 0.00 | 61 | 1021.3 |
| 20260831170049 | 32 | 103 | 3.2 | 11.3 | 0.00 | 0.00 | 0.00 | 64 | 1021.5 |
| 20260831164548 | 31 | 30 | 3.2 | 9.7 | 0.00 | 0.00 | 0.00 | 64 | 1021.5 |
| 20260831163048 | 31 | 0 | 3.2 | 9.7 | 0.00 | 0.00 | 0.00 | 67 | 1021.7 |
| 20260831161552 | 31 | 24 | 3.2 | 11.3 | 0.00 | 0.00 | 0.00 | 69 | 1021.6 |
| 20260831160055 | 31 | 18 | 4.8 | 11.3 | 0.00 | 0.00 | 0.00 | 70 | 1021.4 |
| 20260831154621 | 30 | 359 | 4.8 | 11.3 | 0.00 | 0.00 | 0.00 | 72 | 1021.5 |
| 20260831153055 | 30 | 18 | 4.8 | 11.3 | 0.00 | 0.00 | 0.00 | 73 | 1021.5 |
| 20260831151549 | 29 | 24 | 6.4 | 14.5 | 0.00 | 0.00 | 0.00 | 73 | 1021.6 |
| 20260831150058 | 28 | 347 | 6.4 | 14.5 | 0.00 | 0.00 | 0.00 | 75 | 1021.3 |
| 20260831144636 | 28 | 32 | 6.4 | 14.5 | 0.00 | 0.00 | 0.00 | 78 | 1021.1 |
| 20260831143056 | 28 | 28 | 4.8 | 11.3 | 0.00 | 0.00 | 0.00 | 78 | 1021.0 |
| 20260831141553 | 28 | 26 | 3.2 | 6.4 | 0.00 | 0.00 | 0.00 | 80 | 1020.9 |
| 20260831140047 | 27 | 44 | 3.2 | 6.4 | 0.00 | 0.00 | 0.00 | 81 | 1021.0 |
| 20260831134550 | 26 | 0 | 1.6 | 9.7 | 0.00 | 0.00 | 0.00 | 85 | 1020.9 |
| 20260831133056 | 25 | 16 | 0.0 | 8.0 | 0.00 | 0.00 | 0.00 | 86 | 1021.0 |
| 20260831131549 | 24 | 34 | 1.6 | 6.4 | 0.00 | 0.00 | 0.00 | 89 | 1021.0 |
| 20260831130053 | 23 | 0 | 0.0 | 4.8 | 0.00 | 0.00 | 0.00 | 91 | 1020.8 |
| 20260831124556 | 23 | 40 | 0.0 | 4.8 | 0.00 | 0.00 | 0.00 | 93 | 1020.7 |
| 20260831123051 | 22 | 58 | 0.0 | 1.6 | 0.00 | 0.00 | 0.00 | 96 | 1020.6 |
| 20260831121549 | 21 | 0 | 0.0 | 1.6 | 0.00 | 0.00 | 0.00 | 98 | 1020.5 |
| 20260831120127 | 21 | 0 | 0.0 | 1.6 | 0.00 | 0.00 | 0.00 | 98 | 1020.5 |
| 20260831114557 | 21 | 0 | 0.0 | 0.0 | 0.00 | 0.00 | 0.00 | 98 | 1020.5 |
| 20260831113053 | 20 | 0 | 0.0 | 0.0 | 0.00 | 0.00 | 0.00 | 98 | 1020.4 |
| 20260831111554 | 20 | 0 | 0.0 | 0.0 | 0.00 | 0.00 | 0.00 | 98 | 1020.1 |
| 20260831110047 | 20 | 0 | 0.0 | 0.0 | 0.00 | 0.00 | 0.00 | 98 | 1020.0 |
| 20260831104603 | 20 | 0 | 0.0 | 0.0 | 0.00 | 0.00 | 0.00 | 97 | 1019.8 |
| 20260831103051 | 21 | 0 | 0.0 | 0.0 | 0.00 | 0.00 | 0.00 | 97 | 1019.7 |
| 20260831101555 | 21 | 0 | 0.0 | 0.0 | 0.00 | 0.00 | 0.00 | 97 | 1019.5 |
| 20260831100050 | 21 | 0 | 0.0 | 0.0 | 0.00 | 0.00 | 0.00 | 97 | 1019.5 |
| 20260831094553 | 21 | 0 | 0.0 | 0.0 | 0.00 | 0.00 | 0.00 | 98 | 1019.4 |
| 20260831093055 | 21 | 0 | 0.0 | 0.0 | 0.00 | 0.00 | 0.00 | 97 | 1019.3 |
| 20260831091549 | 21 | 0 | 0.0 | 1.6 | 0.00 | 0.00 | 0.00 | 97 | 1019.2 |
| 20260831084556 | 21 | 0 | 0.0 | 1.6 | 0.00 | 0.00 | 0.00 | 97 | 1019.1 |
| 20260831083055 | 21 | 0 | 0.0 | 0.0 | 0.00 | 0.00 | 0.00 | 97 | 1019.0 |
| 20260831081550 | 21 | 0 | 0.0 | 0.0 | 0.00 | 0.00 | 0.00 | 97 | 1019.0 |
| 20260831080049 | 21 | 0 | 0.0 | 1.6 | 0.00 | 0.00 | 0.00 | 96 | 1018.8 |
| 20260831074556 | 21 | 0 | 0.0 | 0.0 | 0.00 | 0.00 | 0.00 | 97 | 1018.8 |
| 20260831073051 | 21 | 0 | 0.0 | 1.6 | 0.00 | 0.00 | 0.00 | 96 | 1018.9 |
| 20260831071548 | 21 | 0 | 0.0 | 1.6 | 0.00 | 0.00 | 0.00 | 96 | 1018.9 |
| 20260831070055 | 22 | 0 | 0.0 | 1.6 | 0.00 | 0.00 | 0.00 | 96 | 1019.1 |
| 20260831064557 | 22 | 65 | 0.0 | 1.6 | 0.00 | 0.00 | 0.00 | 96 | 1019.2 |
| 20260831063053 | 22 | 0 | 0.0 | 0.0 | 0.00 | 0.00 | 0.00 | 96 | 1019.2 |
| 20260831061554 | 22 | 0 | 0.0 | 0.0 | 0.00 | 0.00 | 0.00 | 96 | 1019.2 |
| 20260831060105 | 22 | 0 | 0.0 | 1.6 | 0.00 | 0.00 | 0.00 | 95 | 1019.3 |
| 20260831054551 | 22 | 0 | 0.0 | 0.0 | 0.00 | 0.00 | 0.00 | 95 | 1019.3 |
| 20260831053100 | 22 | 0 | 0.0 | 1.6 | 0.00 | 0.00 | 0.00 | 95 | 1019.2 |
| 20260831051557 | 22 | 0 | 0.0 | 1.6 | 0.00 | 0.00 | 0.00 | 95 | 1019.2 |
| 20260831050056 | 22 | 0 | 0.0 | 1.6 | 0.00 | 0.00 | 0.00 | 95 | 1019.2 |
| 20260831044549 | 23 | 0 | 0.0 | 1.6 | 0.00 | 0.00 | 0.00 | 95 | 1019.1 |
| 20260831043052 | 23 | 0 | 0.0 | 0.0 | 0.00 | 0.00 | 0.00 | 95 | 1019.1 |
| 20260831041549 | 23 | 0 | 0.0 | 1.6 | 0.00 | 0.00 | 0.00 | 94 | 1019.3 |
| 20260831040053 | 23 | 0 | 0.0 | 0.0 | 0.00 | 0.00 | 0.00 | 94 | 1019.4 |
| 20260831034552 | 23 | 0 | 0.0 | 0.0 | 0.00 | 0.00 | 0.00 | 94 | 1019.4 |
| 20260831033105 | 23 | 0 | 0.0 | 0.0 | 0.00 | 0.00 | 0.00 | 94 | 1019.4 |